Preview of NWS' New Version of Forecast
This preview is not operational and should not be used for support decisions.
Latest weather observations around

Cincinnati, Cincinnati Municipal Airport Lunken Field (KLUK)

Using English Units (Switch to International System of Units)
Date/ Time (EDT) Wind (mph) Vis. (mi) Weather Sky Cond. Temp (°F) Rel. Humidity Wind Chill (°F) Heat Index (°F) Pressure Precip. (in)
Air Dwpt 6 hour Altimeter (inHg) Sea level (inHg) 1 hr 3 hr 6 hr
Max Min
May 20 13:53 SSW 5 8 Partly Cloudy SCT046 83 67     59%   86 30.1 30.09      
May 20 12:53 5 10 Mostly Cloudy BKN043 83 68     61%   86 30.12 30.1      
May 20 11:53 NNW 3 10 Partly Cloudy SCT040 81 69     67%   84 30.11 30.09      
May 20 10:53 Calm 9 Mostly Cloudy SCT024 BKN030 80 70     71%   83 30.09 30.08      
May 20 09:53 Calm 8 Clear CLR 75 70     84%   76 30.09 30.08      
May 20 08:53 Calm 7 Clear CLR 71 69     93%   72 30.08 30.06      
May 20 08:18 Calm 4 Fog/Mist CLR 67 67     100%     30.08        
May 20 08:13 Calm 2 Fog/Mist FEW002 67 67     100%     30.08        
May 20 07:53 Calm 1.25 Fog/Mist SCT002 66 66     100%     30.08 30.06      
May 20 07:24 Calm 0.75 Fog/Mist BKN002 64 64     100%     30.07        
May 20 06:53 Calm 2 Fog/Mist SCT002 63 63     100%     30.06 30.05      
May 20 06:50 SSW 3 1.5 Fog/Mist SCT002 63 63     100%     30.06        
May 20 06:32 Calm 0.25 Fog VV002 64 64     100%     30.04        
May 20 06:24 Calm 0.5 Fog VV002 63 63     100%     30.04        
May 20 06:11 Calm 0.25 Fog VV002 62 62     100%     30.04        
May 20 06:03 Calm 0.5 Fog VV004 63 63     100%     30.04        
May 20 05:58 Calm 1.5 Fog/Mist CLR 63 63     100%     30.04        
May 20 05:53 SW 5 3 Fog/Mist CLR 63 63     100%     30.04 30.03      
May 20 05:51 SW 5 3 Fog/Mist CLR 63 63     100%     30.04        
May 20 05:37 SW 5 1.25 Fog/Mist FEW100 63 63     100%     30.04        
May 20 05:27 SSW 6 0.75 Fog/Mist SCT100 62 62     100%     30.04        
May 20 05:16 WSW 5 1.75 Fog/Mist FEW003 FEW100 63 63     100%     30.04        
May 20 05:08 SW 5 3 Fog/Mist FEW003 FEW100 64 64     100%     30.04        
May 20 05:01 WSW 5 1 Fog/Mist FEW003 SCT100 63 63     100%     30.04        
May 20 04:53 SW 6 0.25 Fog SCT002 BKN100 62 62     100%     30.04 30.02      
May 20 04:41 SW 3 0.5 Fog SCT002 BKN100 64 64     100%     30.03        
May 20 04:30 Calm 0.25 Fog VV002 63 63     100%     30.03        
May 20 04:07 Calm 0.25 Fog SCT003 BKN100 62 62     100%     30.03        
May 20 03:53 SW 3 0.25 Fog SCT100 64 64     100%     30.02 30.01      
May 20 03:46 WSW 3 0.5 Fog FEW002 SCT110 64 64     100%     30.03        
May 20 03:22 Calm 0.25 Fog VV002 64 64     100%     30.02        
May 20 03:09 Calm 0.25 Fog VV003 64 64     100%     30.01        
May 20 02:53 SW 3 0.25 Fog CLR 65 65     100%     30.01 30      
May 20 02:51 SW 3 0.25 Fog CLR 64 64     100%     30.01        
May 20 02:06 Calm 0.25 Fog VV003 64 64     100%     30        
May 20 01:53 Calm 0.25 Fog CLR 63 63     100%     30 29.99      
May 20 01:49 SW 3 0.25 Fog CLR 64 64     100%     30        
May 20 01:21 Calm 0.5 Fog CLR 66 66     100%     30        
May 20 01:11 Calm 1.5 Fog/Mist CLR 66 66     100%     30        
May 20 00:53 Calm 5 Fog/Mist CLR 67 67     100%     30 29.99      
May 19 23:53 Calm 7 Partly Cloudy SCT041 69 69     100%     30.01 30      
May 19 22:53 SSW 3 8 Clear CLR 69 68     96%     29.99 29.98      
May 19 21:53 SSW 6 10 Clear CLR 70 68     93%     29.97 29.96      
May 19 20:53 S 7 10 Mostly Clear FEW050 71 69     93%   72 29.95 29.94      
May 19 19:53 WSW 6 10 Mostly Clear FEW027 FEW090 75 68     79%   76 29.93 29.92     0
May 19 18:53 WSW 7 10 Mostly Cloudy BKN035 75 67     76%   76 29.91 29.9      
May 19 17:53 W 10 10 Mostly Clear FEW026 77 68     74%   78 29.9 29.89 0    
May 19 17:25 W 10 10 Partly Cloudy SCT037 78 69     74%   79 29.9   0    
May 19 16:59 WSW 13 10 Thunderstorms BKN040 BKN050 78 67     69%   79 29.89        
May 19 16:53 WSW 14 10 Mostly Cloudy SCT039 BKN050 78 67     69%   79 29.89 29.88 0 0  
May 19 15:53 SW 13 10 Mostly Cloudy BKN033 BKN043 80 69     69%   83 29.9 29.89      
May 19 14:53 S 8 10 Mostly Cloudy BKN065 75 70     84%   76 29.91 29.9 0    
May 19 14:30 7 10 Mostly Clear FEW065 75 69     82%   76 29.92   0    
May 19 14:13 S 8 10 Mostly Cloudy FEW023 BKN065 BKN120 71 67     87%   72 29.93   0    
May 19 13:53 SSW 15 9 Thunderstorms and Rain FEW019 SCT028 BKN038 73 68     84%   74 29.92 29.91 0   0
May 19 13:46 SW 14 10 Thunderstorms and Rain SCT026 BKN038 74 68     82%   75 29.92   0    
May 19 13:06 S 7 10 Light Rain FEW020 BKN037 OVC050 75 70     84%   76 29.92   0    
May 19 12:53 S 11 10 Cloudy BKN020 BKN029 OVC045 75 69     82%   76 29.92 29.91      
May 19 12:17 S 10 10 Cloudy FEW018 BKN026 OVC035 73 69     87%   74 29.93        
May 19 11:53 SSW 10 10 Cloudy FEW016 FEW020 OVC038 73 69     87%   74 29.93 29.92      
May 19 11:35 S 11 10 Cloudy BKN018 BKN026 OVC040 73 69     87%   74 29.93        
May 19 10:53 S 8 10 Cloudy FEW010 BKN014 OVC020 71 69     93%   72 29.94 29.92 0 0  
May 19 10:14 S 8 10 Cloudy OVC013 69 68     96%     29.94   0    
May 19 09:53 S 7 7 Light Rain OVC015 69 68     96%     29.94 29.92 0    
May 19 08:53 SSW 5 10 Cloudy FEW012 BKN016 OVC035 68 68     100%     29.94 29.92 0    
May 19 07:53 Calm 10 Mostly Cloudy FEW026 SCT039 BKN048 67 67     100%     29.93 29.92     0
May 19 06:53 Calm 7 Patchy Fog SCT040 BKN110 64 64     100%     29.92 29.91 0    
May 19 06:34 Calm 1.75 Fog/Mist FEW060 SCT110 64 64     100%     29.91   0    
May 19 05:53 Calm 3 Fog/Mist FEW050 SCT095 64 64     100%     29.9 29.89      
May 19 05:46 Calm 4 Fog/Mist SCT049 SCT095 64 64     100%     29.9        
May 19 05:27 Calm 2 Fog/Mist FEW002 BKN047 64 64     100%     29.91        
May 19 05:15 Calm 0.75 Fog/Mist FEW002 BKN046 64 64     100%     29.9        
May 19 04:53 Calm 0.5 Fog VV002 64 64     100%     29.9 29.88      
May 19 04:38 Calm 0.5 Fog VV002 64 64     100%     29.89        
May 19 04:31 Calm 1 Fog/Mist VV002 63 63     100%     29.89        
May 19 04:19 Calm 2.5 Fog/Mist CLR 65 65     100%     29.89        
May 19 04:12 Calm 0.75 Fog/Mist CLR 65 65     100%     29.89        
May 19 04:00 Calm 1.25 Fog/Mist FEW008 65 65     100%     29.89        
May 19 03:53 Calm 1 Fog/Mist VV008 66 66     100%     29.89 29.87      
May 19 03:37 Calm 1.75 Fog/Mist SCT008 65 65     100%     29.89        
May 19 03:31 Calm 9 Mostly Clear FEW008 66 66     100%     29.89        
May 19 02:53 ENE 3 10 Clear CLR 66 66     100%     29.88 29.87      
May 19 01:53 S 7 10 Mostly Clear FEW011 69 68     96%     29.89 29.88     0
May 19 00:53 ESE 9 10 Mostly Clear FEW120 70 69     97%     29.88 29.87 0    
May 19 00:33 SE 7 10 Light Rain SCT020 BKN120 70 69     97%     29.88   0    
May 18 23:53 ENE 3 10 Cloudy OVC019 70 70     100%     29.89 29.88 0    
May 18 23:36 NE 5 9 Light Rain SCT012 OVC020 70 70     100%     29.89   0    
May 18 23:28 NE 3 9 Light Rain BKN013 OVC019 70 70     100%     29.9   0    
May 18 22:53 NE 6 3 Heavy Rain and Fog/Mist BKN018 OVC025 70 70     100%     29.9 29.89 0 0  
May 18 21:53 Calm 10 Light Rain BKN017 OVC023 70 70     100%     29.9 29.89 0    
May 18 20:53 N 3 10 Light Rain BKN023 OVC030 71 70     96%   72 29.9 29.89 0    
May 18 20:22 3 7 Light Rain BKN028 BKN055 71 70     96%   72 29.9   0    
May 18 19:53 ENE 8 10 Thunderstorms FEW040 BKN075 OVC110 71 69     93%   72 29.89 29.87 0   0
May 18 19:27 ENE 7 10 Thunderstorms and Rain FEW049 BKN085 OVC120 72 69     91%   73 29.89   0    
May 18 18:53 ENE 5 10 Light Rain BKN045 BKN075 73 68     84%   74 29.9 29.88 0    
May 18 18:39 ENE 6 10 Thunderstorms and Rain FEW034 BKN044 BKN055 73 68     84%   74 29.9   0    
May 18 17:53 NE 9 10 Light Rain FEW027 SCT055 OVC075 73 68     84%   74 29.89 29.88 0    
May 18 16:53 ENE 11 10 Cloudy BKN050 OVC070 75 68     79%   76 29.89 29.88      
May 18 15:53 ENE 11 10 Cloudy BKN026 BKN033 OVC043 75 68     79%   76 29.9 29.89      
May 18 14:53 NE 8 10 Cloudy BKN025 OVC030 76 69     79%   77 29.92 29.91      
May 18 13:53 E 10 10 Cloudy OVC020 74 68     82%   75 29.95 29.94     0
May 18 12:53 E 7 10 Cloudy OVC019 73 67     81%   74 29.96 29.94      
May 18 11:53 ENE 10 10 Cloudy OVC020 72 67     84%   73 29.96 29.95 0    
May 18 10:53 E 7 10 Cloudy OVC022 72 66     82%   73 29.97 29.96      
May 18 09:53 E 8 10 Cloudy OVC021 71 66     84%   72 29.97 29.96      
May 18 09:17 NE 8 10 Cloudy BKN022 OVC032 70 66     87%     29.97        
May 18 08:53 NE 6 10 Cloudy FEW023 OVC032 70 66     87%     29.97 29.96      
May 18 06:53 Calm 10 Cloudy OVC029 67 64     90%     29.94 29.93      
May 18 06:13 ENE 3 10 Cloudy OVC028 66 64     93%     29.93        
May 18 05:53 NE 3 10 Cloudy FEW024 OVC030 66 64     93%     29.93 29.93      
May 18 04:53 NE 5 10 Partly Cloudy FEW025 FEW031 SCT060 64 62     93%     29.92 29.91      
May 18 04:31 NNE 6 10 Cloudy SCT025 BKN060 OVC075 66 63     90%     29.92        
May 18 04:20 NNE 7 10 Cloudy BKN026 BKN060 OVC075 66 63     90%     29.92        
May 18 03:53 NNE 8 10 Cloudy SCT027 OVC075 67 64     90%     29.93        
May 18 02:53 Calm 5 Fog/Mist OVC075 65 65     100%     29.95        
May 18 02:17 Calm 5 Fog/Mist BKN065 64 64     100%     29.96        
May 18 02:10 Calm 2 Fog/Mist BKN060 64 64     100%     29.96        
May 18 01:57 Calm 0.5 Fog FEW002 FEW060 64 64     100%     29.96        
May 18 01:53 Calm 0.25 Fog VV002 64 64     100%     29.96       0
May 18 01:32 Calm 0.5 Fog VV002 64 64     100%     29.97        
May 18 01:25 Calm 1.25 Fog/Mist FEW002 65 65     100%     29.97        
May 18 01:23 Calm 0.75 Fog/Mist VV002 65 65     100%     29.97        
May 18 01:07 Calm 0.25 Fog VV002 64 64     100%     29.97        
May 18 01:01 Calm 0.75 Fog/Mist CLR 66 66     100%     29.97        
May 18 00:53 Calm 2.5 Fog/Mist CLR 66 66     100%     29.97        
May 17 23:53 NE 6 9 Mostly Cloudy FEW090 BKN110 69 67     93%     29.96        
May 17 22:53 NE 6 6 Fog/Mist OVC100 69 69     100%     29.97     0  
May 17 21:53 Calm 6 Fog/Mist SCT080 OVC110 69 69     100%     29.97        
May 17 20:53 ENE 5 6 Fog/Mist OVC110 70 69     97%     29.96   0    
May 17 18:53 NNE 7 8 Light Rain BKN100 72 69     91%   73 29.94   0    
May 17 17:53 NNE 6 8 Mostly Cloudy BKN100 72 69     91%   73 29.93   0    
May 17 17:28 NE 3 8 Light Rain FEW041 BKN100 OVC120 70 68     93%     29.93   0    
May 17 17:04 ENE 11 5 Light Rain and Fog/Mist SCT045 BKN080 70 66     87%     29.94   0    
May 17 15:53 N 8 10 Mostly Cloudy SCT045 BKN095 81 64     58%   82 29.92        
May 17 14:53 ENE 7 10 Mostly Cloudy FEW080 BKN120 80 66     62%   82 29.94 29.93      
May 17 13:53 NE 9 10 Partly Cloudy FEW042 FEW060 SCT080 80 66     62%   82 29.95 29.94      
May 14 18:53 SW 11 10 Mostly Clear FEW070 85 65     51%   87 29.88 29.86      
Notice The following observation data may not be complete
May 14 05:19 Calm 1.75 Fog/Mist CLR   65      %     30        
May 12 20:53 Calm 10 Clear CLR 76 67     74%   77 30 29.98      
Notice The following observation data may not be complete
May 12 00:53 WSW 5 10 Clear CLR   62      %     29.99 29.98      
May 11 16:53   10 Mostly Clear FEW075 85 61     45%   85 29.92 29.91      
Jun 11 12:53   10 Mostly Clear FEW060 86 64     48%   87 30.12 30.11      
Jun 10 18:53 S 14 10 Clear CLR 82 62     51%   83 29.99 29.97      
Jun 10 15:53 SSW 14 10 Clear CLR 84 62     48%   85 30.01 30      
Jun 10 14:53 SSW 10 10 Clear CLR 83 58     43%   83 30.02 30.01      
Jun 10 11:53 SSW 11 10 Clear CLR 80 61     52%   81 30.05 30.04      
Notice The following observation data may not be complete
Jun 09 06:24 Calm 0.75 Fog/Mist CLR   49      %     29.93        
Jun 08 05:14 Calm 4 Fog/Mist CLR 50 50     100%     30.02        
Jun 07 12:53 NE 9 10 Clear   64 54     70%     30.03 30.02      
Jun 05 17:37 SSW 6 10 Clear CLR 68 65     90%     29.73   0